Other Surface Observations
Issued by NWS

Home | Current Version | Previous Version | Text Only | Print | Product List | Glossary On
Versions: 1 2 3 4 5 6 7 8 9 10 11 12 13 14 15 16 17 18 19 20 21 22 23 24 25 26 27 28 29 30 31 32 33 34 35 36 37 38 39 40 41 42 43 44 45 46 47 48 49 50
984
SXUS52 KTAE 232018
OSOTAE
OSOTAE
North Florida/South Alabama/Southwest Georgia Weather Roundup
National Weather Service Tallahassee Florida
400 PM EDT SUN JUL 23 2017

Note: "fair" indicates few or no clouds below 12,000 feet with no
significant weather and/or obstructions to visibility.

!FLZ017-115-028-034-025-232100
...North Florida...

CITY           SKY/WX    TMP DP  RH WIND       PRES   REMARKS
TALLAHASSEE    CLOUDY    79  76  90 S7        29.98F
APALACHICOLA   CLOUDY    85  79  82 S7        29.99F HX  98
PERRY          LGT RAIN  80  76  87 S7        30.00F
CROSS CITY     CLOUDY    80  74  82 SW9       30.05F
JACKSONVILLE   CLOUDY    79  77  94 S5        29.99F
$$

!FLZ112-006-005-002-011-232100
...Florida Panhandle...

CITY           SKY/WX    TMP DP  RH WIND       PRES   REMARKS
MARIANNA       PTSUNNY   82  79  90 SW6       29.95F HX  92
BONIFAY        NOT AVBL
PANAMA CITY NW FAIR      88  73  61 S12       29.95F HX  95
TYNDALL AFB    PTSUNNY   85  76  73 SW10      29.97F HX  95
TYND DRONE APT FAIR      84  76  77 SW8       29.97F HX  93
DE FUNIAK SPR  FAIR      82  77  83 E3        29.97F HX  91
EGLIN AFB      PTSUNNY   87  75  68 S14       29.95F HX  96
DESTIN         MOSUNNY   90  73  57 S7        29.96F HX  98
HURLBURT       MOSUNNY   88  77  71 S13       29.94F HX 100
CRESTVIEW      PTSUNNY   87  74  64 SW12      29.95F HX  95
PENSACOLA      LGT RAIN  86  75  69 SW9       29.95F HX  95
$$

!ALZ063-066-232100
...South Alabama...

CITY           SKY/WX    TMP DP  RH WIND       PRES   REMARKS
DOTHAN         SUNNY     91  74  57 SW13      29.97F HX 100
OZARK CAIRNS   MOSUNNY   90  74  60 S10       29.94F HX  99
FT RUCKER HELI MOSUNNY   88  75  65 SW10      29.93F HX  98
RUCKER HELI 3  FAIR      88  73  61 SW7       29.93F HX  95
RUCKER HELI 2  FAIR      89  76  64 S5        29.92F HX 100
FLORALA APT    CLOUDY    86  73  65 S13       29.97F HX  93
ANDALUSIA      CLOUDY    94  71  47 VRB7      29.93F HX 101
TROY           SUNNY     90  72  55 CALM      29.94F HX  97
EUFALA         FAIR      93  73  52 SW5       29.91F HX 102
MOBILE         CLOUDY    85  73  67 S13       29.98R HX  91
$$

!GAZ120>161-232100
...Southwest and South Central Georgia...

CITY           SKY/WX    TMP DP  RH WIND       PRES   REMARKS
THOMASVILLE    FAIR      86  73  66 S13G18    29.97F HX  93
BAINBRIDGE     CLOUDY    82  77  83 S8        29.97F HX  91
MOODY AFB      CLOUDY    84  75  72 SW15      29.96F HX  92
VALDOSTA       CLOUDY    83  73  72 S8G21     29.97F
MOULTRIE       MOSUNNY   86  73  66 SW10      29.97F HX  93
BLAKELY        MOSUNNY   91  72  52 SW10      29.94F HX  98
ALBANY         MOSUNNY   86  77  74 S10       29.95F HX  97
TIFTON         TSTM      74  74 100 SE5       29.98S
FITZGERALD     FAIR      88  76  67 SW15      29.97S HX  98
CORDELE        FAIR      95  72  47 W12       29.93S HX 104
AMERICUS       MOCLDY    91  66  43 SW8       29.93F HX  94
HOMERVILLE     FAIR      84  75  74 SW10G17   29.99S HX  92
$$

!GMZ750-755-770-775-232100
...Coastal and Buoy Obs...

STATION/POSITION TIME  TEMP    WIND        PRES    VSBY  WAVE
                       AIR SEA DIR/SP/G                  HT/PER
                 (UTC) (F)     (DEG/KT/KT) (MB)    (MI)  (FT/S)
KEATON BEACH     2000   80     200/ 12/ 14 1015.3F
CEDAR KEY        2000   81     240/  6/ 10 1016.7F
C TOWER          NOT AVBL
APALACHICOLA BUO 1950   82 86   10/ 10/ 14 1016.5S         2/ 4
PANAMA CITY BUOY 1950   84 85  240/  8/ 10 1015.8F         2/ 5
MOBILE BUOY      2000   78 85  290/  4/  8 1016.1
ORANGE BCH AL BU 1950   83 87  250/  8/ 10 1014.8F         2/ 5
$$




USA.gov is the U.S. government's official web portal to all federal, state and local government web resources and services.